EW1895 Weather Reports


Display with metric or nautical units.
time (UTC)temp
F
wind
direction
speed
MPH
gust
MPH
rain 1hr
in
rain 24hr
in
rain mn
in
humidity
%
barometer
mb
20260904110034 72 305 0.0 0.0 0.00 0.00 0.00 94 1014.0
20260904104534 72 305 0.0 0.0 0.00 0.00 0.00 93 1013.9
20260904101531 72 305 0.0 0.0 0.00 0.00 0.00 92 1013.9
20260904100031 72 305 0.0 0.0 0.00 0.00 0.00 92 1014.0
20260904094530 72 305 0.0 0.0 0.00 0.00 0.00 92 1014.0
20260904091528 73 305 0.0 0.0 0.00 0.00 0.00 91 1014.2
20260904090026 73 305 0.0 0.0 0.00 0.00 0.00 90 1014.3
20260904084525 74 305 0.0 0.0 0.00 0.00 0.00 90 1014.2
20260904081520 74 305 0.0 0.0 0.00 0.00 0.00 88 1014.0
20260904080018 75 305 0.0 0.0 0.00 0.00 0.00 88 1013.9
20260904074532 75 305 0.0 0.0 0.00 0.00 0.00 88 1013.7
20260904071514 76 305 0.0 0.0 0.00 0.00 0.00 84 1013.5
20260904070012 77 305 0.0 0.0 0.00 0.00 0.00 84 1013.4
20260904064515 77 305 0.0 0.0 0.00 0.00 0.00 85 1013.5
20260904061506 78 305 0.0 0.0 0.00 0.00 0.00 83 1013.5
20260904060006 79 305 0.0 1.0 0.00 0.00 0.00 81 1014.1
20260904054506 80 327 0.0 5.0 0.00 0.00 0.00 85 1014.8
20260904051502 79 5 0.0 0.0 0.00 0.00 0.00 89 1014.0
20260904050002 79 5 0.0 0.0 0.00 0.00 0.00 89 1014.1
20260904044502 79 5 0.0 0.0 0.00 0.00 0.00 88 1014.2
20260904041501 79 5 0.0 0.0 0.00 0.00 0.00 89 1014.4
20260904040110 79 5 0.0 0.0 0.00 0.00 0.00 90 1014.2
20260904034610 79 5 0.0 0.0 0.00 0.00 0.00 90 1014.2
20260904033200 79 5 0.0 0.0 0.00 0.00 0.00 91 1014.3
20260904031600 79 5 0.0 0.0 0.00 0.00 0.00 91 1014.3
20260904030059 80 5 0.0 0.0 0.00 0.00 0.00 91 1014.4
20260904024600 80 5 0.0 0.0 0.00 0.00 0.00 91 1014.3
20260904023159 80 5 0.0 0.0 0.00 0.00 0.00 91 1014.4
20260904021609 80 5 0.0 0.0 0.00 0.00 0.00 91 1014.2
20260904020059 80 5 0.0 0.0 0.00 0.00 0.00 91 1014.1
20260904014637 80 5 0.0 0.0 0.00 0.00 0.00 90 1014.3
20260904013159 81 5 0.0 0.0 0.00 0.00 0.00 89 1014.6
20260904011614 81 5 0.0 0.0 0.00 0.00 0.00 89 1014.6
20260904004559 82 5 0.0 0.0 0.00 0.00 0.00 89 1015.0
20260904003156 82 5 0.0 0.0 0.00 0.00 0.00 88 1015.0
20260904001554 83 5 0.0 0.0 0.00 0.00 0.00 87 1014.7
20260904000054 84 5 0.0 0.0 0.00 0.00 0.00 86 1014.5
20260903234554 84 5 0.0 0.0 0.00 0.00 0.00 84 1014.2
20260903233155 85 5 0.0 0.0 0.00 0.00 0.00 82 1014.0
20260903231553 86 5 0.0 0.0 0.00 0.00 0.00 81 1014.1
20260903230055 87 5 0.0 0.0 0.00 0.00 0.00 78 1014.0
20260903224552 88 5 0.0 0.0 0.00 0.00 0.00 74 1013.9
20260903223155 90 5 0.0 0.0 0.00 0.00 0.00 70 1013.7
20260903221551 91 5 0.0 0.0 0.00 0.00 0.00 68 1013.7
20260903220116 92 5 0.0 0.0 0.00 0.00 0.00 66 1013.9
20260903214548 92 5 0.0 0.0 0.00 0.00 0.00 66 1014.0
20260903213150 93 5 0.0 0.0 0.00 0.00 0.00 63 1014.0
20260903211552 94 5 0.0 0.0 0.00 0.00 0.00 62 1014.2
20260903210056 95 5 0.0 0.0 0.00 0.00 0.00 60 1014.2
20260903204546 96 5 0.0 0.0 0.00 0.00 0.00 60 1014.3
20260903203145 96 5 0.0 0.0 0.00 0.00 0.00 56 1014.6
20260903201544 96 5 0.0 0.0 0.00 0.00 0.00 57 1014.7
20260903200044 97 5 0.0 0.0 0.00 0.00 0.00 58 1014.7
20260903194543 97 5 0.0 0.0 0.00 0.00 0.00 55 1014.9
20260903193142 98 5 0.0 0.0 0.00 0.00 0.00 53 1015.3
20260903191539 98 5 0.0 0.0 0.00 0.00 0.00 54 1015.4
20260903190037 98 5 0.0 5.0 0.00 0.00 0.00 52 1015.5
20260903184533 97 344 0.0 0.0 0.00 0.00 0.00 56 1015.9
20260903183130 96 344 0.0 0.0 0.00 0.00 0.00 57 1016.0
20260903181529 96 344 0.0 1.0 0.00 0.00 0.00 59 1016.1
20260903180032 96 344 0.0 0.0 0.00 0.00 0.00 58 1016.4
20260903174526 95 344 0.0 0.0 0.00 0.00 0.00 59 1016.7
20260903173123 94 344 0.0 0.0 0.00 0.00 0.00 60 1016.6
20260903171527 93 344 0.0 0.0 0.00 0.00 0.00 62 1016.7
20260903170032 92 335 0.0 2.0 0.00 0.00 0.00 64 1017.0
20260903164520 92 341 0.0 0.0 0.00 0.00 0.00 63 1017.1
20260903163111 92 26 0.0 1.0 0.00 0.00 0.00 64 1017.4
20260903161507 90 26 0.0 0.0 0.00 0.00 0.00 68 1017.4
20260903160005 89 26 0.0 1.0 0.00 0.00 0.00 68 1017.4
20260903154503 89 328 0.0 0.0 0.00 0.00 0.00 70 1017.5
20260903153101 87 324 0.0 4.0 0.00 0.00 0.00 73 1017.6
20260903151557 86 286 0.0 1.0 0.00 0.00 0.00 75 1017.6
20260903150109 86 119 0.0 2.0 0.00 0.00 0.00 75 1017.5
20260903144601 86 329 0.0 5.0 0.00 0.00 0.00 75 1017.4
20260903143050 85 152 0.0 5.0 0.00 0.00 0.00 76 1017.3
20260903141547 85 87 0.0 3.0 0.00 0.00 0.00 78 1017.3
20260903140043 83 173 0.0 2.0 0.00 0.00 0.00 80 1017.1
20260903134547 81 173 0.0 2.0 0.00 0.00 0.00 86 1017.2
20260903133038 78 170 0.0 0.0 0.00 0.00 0.00 94 1016.8
20260903131532 76 170 0.0 0.0 0.00 0.00 0.00 96 1017.1
20260903130028 75 170 0.0 0.0 0.00 0.00 0.00 96 1017.2
20260903124530 75 170 0.0 0.0 0.00 0.00 0.00 96 1017.4
20260903123033 74 170 0.0 0.0 0.00 0.00 0.00 96 1017.4
20260903121527 73 170 0.0 0.0 0.00 0.00 0.00 96 1017.4
20260903120025 73 170 0.0 0.0 0.00 0.00 0.00 96 1017.4
20260903114521 72 170 0.0 0.0 0.00 0.00 0.00 96 1017.2
20260903113019 72 170 0.0 0.0 0.00 0.00 0.00 95 1017.0
20260903111518 71 170 0.0 0.0 0.00 0.00 0.00 95 1016.9